Weather in Torsby

Sweden     60°08′02″N   13°00′25″E
temp.,
°C
wind,
m/s
gust,
m/s
humid.,
%
clouds,
%
prec.,
mm/h
press.,
hPa
HPBL,
m
20 april, tue
tue2023:00+7s11530 0.0 102410
02:00+5s11610 0.0 102410
05:00+4sse11674 0.0 102210
08:00+7sse235736 0.0 1021182
11:00+12s343853 0.0 1019998
14:00+15ssw343056 0.0 10161683
17:00+15ssw453010 0.0 10131977
20:00+11s37460 0.0 1011185
21 april, wed
wed2123:00+7s2861100 0.0 1010219
02:00+5sse266887 0.0 1006177
05:00+5sse397615 0.0 1003439
08:00+6s47758 0.0 1001803
11:00+8ssw455194 0.1 9991779
14:00+9s3443100 0.5 9981672
17:00+8sse225099 1.1 9981318
20:00+2n71694100 6.4 10001256
22 april, thu
thu2223:00+2n81674100 4.6 10021488
02:000nnw61788100 4.9 10041558
05:000n71984100 1.0 10051620
08:00+1n71763100 1.1 10061524
11:00+3n71759100 0.3 10081584
14:00+5n71554100 0.4 10101836
17:00+6n61254100 0.1 10112135
20:00+3nnw713536 0.1 10141148
23 april, fri
fri2323:00+1nnw512570 0.0 1016877
02:00−1nnw412630 0.0 1017688
05:00−1nw512580 0.0 10181075
08:00+2nnw512499 0.0 10181420
11:00+5nnw59336 0.0 10182644
14:00+6nnw6930100 0.0 10183164
17:00+6nnw5113550 0.0 10183136
20:00+3nnw511475 0.0 10191183
24 april, sat
sat2423:00+1nnw412585 0.0 1020713
02:000nw412590 0.0 1020740
05:00−1nw412630 0.0 1021688
08:00+2nnw615495 0.0 10211879
11:00+4nnw7113597 0.0 10212411
14:00+6nnw71031100 0.0 10212953
17:00+6nnw6113785 0.0 10222566
20:00+4nnw512485 0.0 10231551